Regional Weather Roundup
Issued by NWS

Home | Current Version | Previous Version | Text Only | Print | Product List | Glossary On
Versions: 1 2 3 4 5 6 7 8 9 10 11 12 13 14 15 16 17 18 19 20 21 22 23 24 25 26 27 28 29 30 31 32 33 34 35 36 37 38 39 40 41 42 43 44 45 46 47 48 49 50
000
ASUS44 KLIX 290010
RWRLA
LOUISIANA WEATHER ROUNDUP
NATIONAL WEATHER SERVICE NEW ORLEANS LA
600 PM CST FRI NOV 28 2014

NOTE: "FAIR" INDICATES FEW OR NO CLOUDS BELOW 12,000 FEET WITH NO
      SIGNIFICANT WEATHER AND/OR OBSTRUCTIONS TO VISIBILITY.
      SKY/WX - SKY CONDITION AND SIGNIFICANT WEATHER.
      TMP - AIR TEMPERATURE.    DP   - DEWPOINT TEMPERATURE.
      RH  - RELATIVE HUMIDITY.  PRES - PRESSURE.
      HX  - HEAT INDEX.         WCI  - WIND CHILL INDEX.

*  THESE STATIONS ARE NOT NWS OR FAA STATIONS AND ARE NOT UNDER
   NWS QUALITY CONTROL.

LAZ040-048-061>063-065-066-069-290100-
SOUTHEAST LOUISIANA

CITY           SKY/WX    TMP DP  RH WIND       PRES   REMARKS
N.O. AUDUBON     N/A     53  47  79 MISG        N/A
N.O. INTL ARPT PTCLDY    53  41  63 SE7       30.30S
6HR MIN TEMP:  53; 6HR MAX TEMP:  62;

N.O. LAKEFRONT CLEAR     53  43  68 SE6       30.31S
6HR MIN TEMP:  53; 6HR MAX TEMP:  58;

N.O. DOWNTOWN* FAIR      55  41  58 CALM      30.31S
6HR MIN TEMP:  55; 6HR MAX TEMP:  57;

SLIDELL        CLEAR     46  40  79 SE3       30.30S
6HR MIN TEMP:  46; 6HR MAX TEMP:  60;

BATON ROUGE    CLEAR     50  35  56 E8        30.26F
6HR MIN TEMP:  49; 6HR MAX TEMP:  63;

BOOTHVILLE     CLEAR     54  50  86 E5        30.31S
6HR MIN TEMP:  54; 6HR MAX TEMP:  59;

BELLE CHASSE   PTCLDY    49  41  74 E3        30.31R
6HR MIN TEMP:  49; 6HR MAX TEMP:  60;

BOGALUSA*        N/A     51  37  59 SW5       30.30S
6HR MIN TEMP:  49; 6HR MAX TEMP:  63;

NEW ROADS*     FAIR      54  35  48 SE3       30.26S
6HR MIN TEMP:  54; 6HR MAX TEMP:  63;

GONZALES*      FAIR      52  44  72 CALM      30.28S
6HR MIN TEMP:  52; 6HR MAX TEMP:  63;

HAMMOND*       CLEAR     48  39  71 SE5       30.31S
HOUMA*         CLEAR     48  43  81 SE3       30.29S
PORT FOURCHON* PTCLDY    57  50  77 E5        30.32S

$$

LAZ041-044-053-054-290100-
SOUTHWEST LOUISIANA

CITY           SKY/WX    TMP DP  RH WIND       PRES   REMARKS
LAKE CHARLES   PTCLDY    55  53  93 SE6       30.23S
6HR MIN TEMP:  55; 6HR MAX TEMP:  64;

LAFAYETTE      CLEAR     56  49  77 S3        30.26S
6HR MIN TEMP:  56; 6HR MAX TEMP:  65;

PATTERSON      CLEAR     55  45  67 SE7       30.30S
6HR MIN TEMP:  55; 6HR MAX TEMP:  64;

SALT POINT       N/A     59  49  69 SE7       30.27S
6HR MIN TEMP:  59; 6HR MAX TEMP:  65;

NEW IBERIA     CLEAR     54  48  80 S6        30.27S
6HR MIN TEMP:  54; 6HR MAX TEMP:  65;

CHENAULT AIRPK NOT AVBL

$$

LAZ027-028-290100-
CENTRAL LOUISIANA

CITY           SKY/WX    TMP DP  RH WIND       PRES   REMARKS
FORT POLK      CLEAR     55  49  81 S8        30.20S
6HR MIN TEMP:  55; 6HR MAX TEMP:  64;

ALEXANDRIA INT CLEAR     55  43  63 S7        30.20F
6HR MIN TEMP:  54; 6HR MAX TEMP:  64;

ALEXANDRIA     CLEAR     54  41  61 S3        30.22S
6HR MIN TEMP:  54; 6HR MAX TEMP:  63;


$$

LAZ001-002-290100-
NORTHWEST LOUISIANA

CITY           SKY/WX    TMP DP  RH WIND       PRES   REMARKS
SHREVEPORT     PTCLDY    55  43  63 S9        30.13F
6HR MIN TEMP:  54; 6HR MAX TEMP:  66;

BARKSDALE AFB  CLEAR     55  42  61 S9        30.14S
6HR MIN TEMP:  53; 6HR MAX TEMP:  65;

DTN SHREVEPORT CLEAR     56  41  57 S8        30.13F
6HR MIN TEMP:  56; 6HR MAX TEMP:  65;


$$

LAZ014-016-290100-
NORTHEAST LOUISIANA

CITY           SKY/WX    TMP DP  RH WIND       PRES   REMARKS
MONROE         CLEAR     54  37  52 S6        30.20S
6HR MIN TEMP:  54; 6HR MAX TEMP:  62;

TALLULAH       CLEAR     50  31  48 S6        30.22S
6HR MIN TEMP:  50; 6HR MAX TEMP:  62;


$$



USA.gov is the U.S. government's official web portal to all federal, state and local government web resources and services.